Regional Weather Roundup
Issued by NWS Charleston, WV

Home | Current Version | Previous Version | Graphics & Text | Print | Product List | Glossary On
Versions: 1 2 3 4 5 6 7 8 9 10 11 12 13 14 15 16 17 18 19 20 21 22 23 24 25 26 27 28
000
ASUS41 KRLX 211210
RWRRLX
West Virginia Regional Weather Roundup
National Weather Service Charleston WV
700 AM EST SUN JAN 21 2018

Note: "fair" indicates few or no clouds below 12,000 feet with no
significant weather and/or obstructions to visibility.

WVZ003-211300-
Northern Panhandle of West Virginia

CITY           SKY/WX    TMP DP  RH WIND       PRES   REMARKS
WHEELING       CLOUDY    42  41  96 S8        30.12S FOG
$$

WVZ009-211300-
Northwest West Virginia

CITY           SKY/WX    TMP DP  RH WIND       PRES   REMARKS
PARKERSBURG    CLOUDY    42  40  92 S5        30.18R
$$

WVZ006-211300-
Western West Virginia

CITY           SKY/WX    TMP DP  RH WIND       PRES   REMARKS
HUNTINGTON     CLOUDY    49  36  61 S7        30.16R
$$

WVZ015-211300-
West Central West Virginia

CITY           SKY/WX    TMP DP  RH WIND       PRES   REMARKS
CHARLESTON     CLOUDY    50  38  63 SW7       30.18R
$$

WVZ022-031-211300-
North Central West Virginia

CITY           SKY/WX    TMP DP  RH WIND       PRES   REMARKS
CLARKSBURG     LGT RAIN  47  43  86 W8        30.17R FOG
MORGANTOWN     CLOUDY    45  42  89 SW6       30.16R
$$

WVZ025-035-042-045-211300-
Southern West Virginia

CITY           SKY/WX    TMP DP  RH WIND       PRES   REMARKS
BECKLEY        CLOUDY    43  33  68 SW5       30.19S
LOGAN          CLOUDY    45  37  76 CALM      30.19S
BLUEFIELD      CLOUDY    41  32  70 W6        30.21R
LEWISBURG      CLOUDY    41  39  91 CALM      30.20S
$$

WVZ047-211300-
Northern Mountains of West Virginia

CITY           SKY/WX    TMP DP  RH WIND       PRES   REMARKS
ELKINS         CLOUDY    43  41  93 CALM      30.17R
$$

WVZ052-211300-
Eastern Panhandle of West Virginia

CITY           SKY/WX    TMP DP  RH WIND       PRES   REMARKS
MARTINSBURG    CLOUDY    43  34  70 SE5       30.14R
PETERSBURG     CLOUDY    44  39  82 CALM      30.14S
$$




USA.gov is the U.S. government's official web portal to all federal, state and local government web resources and services.